Change the Weather History Date:

Wednesday, January 9, 2013

  Actual Average Record
Temperature  
Mean Temperature 27 °F 13 °F  
Max Temperature 45 °F 23 °F 56 °F (2012)
Min Temperature 9 °F 4 °F -38 °F (1905)
Degree Days  
Heating Degree Days 38 52  
Month to date heating degree days 427 468  
Since 1 July heating degree days 3957 3970  
Cooling Degree Days 0 0  
Month to date cooling degree days 0 0  
Year to date cooling degree days 0 0  
Moisture  
Dew Point 23 °F    
Average Humidity 69    
Maximum Humidity 85    
Minimum Humidity 53    
Precipitation  
Precipitation 0.00 in 0.01 in 0.06 in (1963)
Month to date precipitation 0.06 0.13  
Year to date precipitation 0.06 0.13  
Snow  
Snow 0.00 in 0.30 in 3.00 in (1972)
Month to date snowfall 1.5 2.8  
Since 1 July snowfall 24.1 17.4  
Snow Depth 4.00 in    
Sea Level Pressure  
Sea Level Pressure 29.86 in    
Wind  
Wind Speed 12 mph (SE)    
Max Wind Speed 16 mph    
Max Gust Speed 22 mph    
Visibility 10 miles    
Events      
T = Trace of Precipitation, MM = Missing Value Source: NWS Daily Summary

Daily Weather History Graph

Daily Weather History Graph

Search for Another Location

Airport or City:

Trip Planner

Search our weather history database for the weather conditions in past years. The results will help you decide how hot, cold, wet, or windy it might be!

Date:

Astronomy

Jan. 09, 2013 Rise Set
Actual Time 7:55 AM MST 4:32 PM MST
Civil Twilight 7:19 AM MST 5:08 PM MST
Nautical Twilight 6:40 AM MST 5:47 PM MST
Astronomical Twilight 6:02 AM MST 6:25 PM MST
Moon 5:38 AM MST (1/9) 2:36 PM MST (1/9)
Length of Visible Light 9h 48m
Length of Day
8h 37m
Waning Crescent, 6% of the Moon is Illuminated
Jan 9
Waning Crescent
Jan 11
New
Jan 18
First Quarter
Jan 26
Full
Feb 3
Last Quarter

Hourly Weather History & Observations

Time (MST) Temp. Windchill Dew Point Humidity Pressure Visibility Wind Dir Wind Speed Gust Speed Precip Events Conditions
12:53 AM 12.2 °F -1.8 °F 6.8 °F 79% 29.96 in 10.0 mi East 11.5 mph - N/A   Partly Cloudy
1:53 AM 18.0 °F 6.1 °F 12.0 °F 78% 30.05 in 10.0 mi ESE 10.4 mph - N/A   Overcast
2:53 AM 19.9 °F 7.3 °F 14.0 °F 78% 30.03 in 10.0 mi ESE 12.7 mph - N/A   Overcast
3:53 AM 21.0 °F 8.6 °F 15.1 °F 78% 29.98 in 10.0 mi ESE 12.7 mph - N/A   Mostly Cloudy
4:53 AM 23.0 °F 9.6 °F 17.1 °F 78% 29.94 in 10.0 mi ESE 16.1 mph - N/A   Mostly Cloudy
5:53 AM 23.0 °F 10.1 °F 17.1 °F 78% 29.93 in 10.0 mi ESE 15.0 mph - N/A   Partly Cloudy
6:53 AM 23.0 °F 10.6 °F 17.1 °F 78% 29.93 in 10.0 mi ESE 13.8 mph - N/A   Clear
7:53 AM 21.9 °F 9.8 °F 17.1 °F 82% 29.95 in 10.0 mi ESE 12.7 mph - N/A   Clear
8:53 AM 21.9 °F 9.8 °F 17.1 °F 82% 29.95 in 10.0 mi ESE 12.7 mph - N/A   Clear
9:53 AM 26.1 °F 16.2 °F 19.9 °F 78% 29.94 in 10.0 mi ESE 10.4 mph - N/A   Mostly Cloudy
11:53 AM 32.0 °F 23.0 °F 26.1 °F 79% 29.90 in 10.0 mi ESE 11.5 mph - N/A   Clear
12:53 PM 36.0 °F 28.5 °F 28.0 °F 73% 29.88 in 10.0 mi SE 10.4 mph - N/A   Clear
1:53 PM 43.0 °F 36.4 °F 28.0 °F 56% 29.83 in 10.0 mi South 12.7 mph - N/A   Clear
2:53 PM 44.1 °F 40.1 °F 28.0 °F 53% 29.83 in 10.0 mi SSW 6.9 mph - N/A   Scattered Clouds
3:53 PM 42.1 °F 38.4 °F 28.0 °F 58% 29.81 in 10.0 mi South 5.8 mph - N/A   Mostly Cloudy
4:53 PM 39.0 °F 31.4 °F 28.9 °F 67% 29.80 in 10.0 mi SE 12.7 mph - N/A   Scattered Clouds
5:53 PM 37.9 °F 30.5 °F 30.0 °F 73% 29.78 in 10.0 mi SE 11.5 mph - N/A   Mostly Cloudy
6:53 PM 37.0 °F 28.9 °F 30.0 °F 76% 29.78 in 10.0 mi SSE 12.7 mph - N/A   Clear
7:53 PM 36.0 °F 28.5 °F 30.0 °F 79% 29.74 in 10.0 mi ESE 10.4 mph - N/A   Partly Cloudy
8:53 PM 36.0 °F 27.5 °F 28.9 °F 76% 29.73 in 10.0 mi ESE 12.7 mph - N/A   Clear
9:53 PM 35.1 °F 26.9 °F 28.9 °F 78% 29.72 in 10.0 mi ESE 11.5 mph - N/A   Clear
10:53 PM 30.9 °F 22.2 °F 27.0 °F 85% 29.70 in 10.0 mi ESE 10.4 mph - N/A   Clear
11:53 PM 30.0 °F 21.1 °F 26.1 °F 85% 29.68 in 10.0 mi ESE 10.4 mph - N/A   Clear